AMV430 LKPR-EGGW

Flight info

Callsign AMV430
Flight time N/A
Altitude 38000
Route BALTU DCT DONAD DCT VARIK L602 SODRO DCT KATCE DCT WRB DCT LARAS DCT NOGRO M40 RINIS
Aircraft A320/M-SDE3FGHIRWY/LB1

Departure

Time N/A
Airport Václav Havel Airport Prague (LKPR)

Arrival

Time 2026-04-28 13:33
Airport London Luton Airport (EGGW)
Time Latitude Longitude Altitude Speed Heading
2026-04-28 13:00 51.94442 3.43524 37808 ft 470 kts 278°
2026-04-28 13:00 51.94869 3.38269 37025 ft 472 kts 278°
2026-04-28 13:00 51.95295 3.32988 36270 ft 473 kts 278°
2026-04-28 13:00 51.95720 3.27682 35596 ft 475 kts 277°
2026-04-28 13:01 51.96144 3.22367 35337 ft 479 kts 277°
2026-04-28 13:01 51.96196 3.11570 35289 ft 479 kts 264°
2026-04-28 13:01 51.95851 3.06173 35171 ft 480 kts 263°
2026-04-28 13:02 51.95505 3.00781 34927 ft 482 kts 263°
2026-04-28 13:02 51.95155 2.95378 34694 ft 482 kts 263°
2026-04-28 13:02 51.94799 2.89997 34466 ft 479 kts 263°
2026-04-28 13:02 51.94437 2.84596 33409 ft 486 kts 263°
2026-04-28 13:03 51.94066 2.79117 32302 ft 492 kts 263°
2026-04-28 13:03 51.93689 2.73589 31208 ft 496 kts 263°
2026-04-28 13:03 51.93314 2.68066 29936 ft 504 kts 263°
2026-04-28 13:03 51.92929 2.62411 28743 ft 505 kts 263°
2026-04-28 13:04 51.92543 2.56746 27495 ft 507 kts 263°
2026-04-28 13:04 51.92153 2.51100 26109 ft 498 kts 263°
2026-04-28 13:04 51.91772 2.45596 24823 ft 486 kts 262°
2026-04-28 13:04 51.91396 2.40205 23622 ft 477 kts 262°
2026-04-28 13:05 51.91010 2.34784 22746 ft 490 kts 262°
2026-04-28 13:05 51.90661 2.29290 22454 ft 490 kts 264°
2026-04-28 13:05 51.90440 2.23762 22254 ft 492 kts 266°
2026-04-28 13:05 51.90324 2.18221 22298 ft 494 kts 268°
2026-04-28 13:06 51.90258 2.12651 22015 ft 493 kts 268°
2026-04-28 13:06 51.90201 2.07177 20557 ft 481 kts 268°
2026-04-28 13:06 51.90152 2.03601 19720 ft 476 kts 268°
2026-04-28 13:06 51.90153 1.98285 19024 ft 470 kts 273°
2026-04-28 13:07 51.90594 1.93061 18696 ft 468 kts 283°
2026-04-28 13:07 51.91515 1.87996 18468 ft 468 kts 292°
2026-04-28 13:07 51.93462 1.81789 18279 ft 465 kts 305°
2026-04-28 13:07 51.94739 1.78933 18309 ft 464 kts 309°
2026-04-28 13:08 51.96447 1.74494 18303 ft 467 kts 294°
2026-04-28 13:08 51.97250 1.69441 17790 ft 461 kts 275°
2026-04-28 13:08 51.97389 1.64270 16976 ft 457 kts 272°
2026-04-28 13:08 51.97548 1.59148 16233 ft 452 kts 273°
2026-04-28 13:09 51.97765 1.54083 15531 ft 447 kts 274°
2026-04-28 13:09 51.98010 1.49087 14836 ft 442 kts 274°
2026-04-28 13:09 51.98257 1.44195 14163 ft 438 kts 274°
2026-04-28 13:09 51.98497 1.39300 13452 ft 433 kts 274°
2026-04-28 13:10 51.98719 1.34455 12720 ft 428 kts 274°
2026-04-28 13:10 51.98924 1.29667 11985 ft 423 kts 274°
2026-04-28 13:10 51.99117 1.24917 11469 ft 421 kts 274°
2026-04-28 13:10 51.99306 1.20174 11290 ft 421 kts 274°
2026-04-28 13:11 51.99494 1.15436 11310 ft 421 kts 274°
2026-04-28 13:11 51.99681 1.10704 11307 ft 412 kts 274°
2026-04-28 13:11 51.99860 1.06204 11309 ft 389 kts 274°
2026-04-28 13:11 52.00029 1.01946 11310 ft 368 kts 274°
2026-04-28 13:12 52.00188 0.97911 11308 ft 350 kts 274°
2026-04-28 13:12 52.00340 0.94065 11313 ft 333 kts 273°
2026-04-28 13:12 52.00485 0.90385 11311 ft 322 kts 273°
2026-04-28 13:12 52.00626 0.86772 11312 ft 320 kts 273°
2026-04-28 13:13 52.00763 0.83166 11313 ft 320 kts 273°
2026-04-28 13:13 52.00897 0.79563 11311 ft 320 kts 273°
2026-04-28 13:13 52.01030 0.76009 11040 ft 317 kts 273°
2026-04-28 13:13 52.01161 0.72444 10679 ft 316 kts 273°
2026-04-28 13:14 52.01289 0.68904 10402 ft 308 kts 272°
2026-04-28 13:14 52.01411 0.65544 10260 ft 289 kts 272°
2026-04-28 13:14 52.01514 0.62345 9869 ft 281 kts 272°
2026-04-28 13:14 52.01594 0.59192 9405 ft 280 kts 271°
2026-04-28 13:15 52.01662 0.56059 9314 ft 277 kts 271°
2026-04-28 13:15 52.01727 0.52916 9322 ft 279 kts 271°
2026-04-28 13:15 52.01794 0.49771 9324 ft 279 kts 271°
2026-04-28 13:15 52.01862 0.46623 9326 ft 279 kts 271°
2026-04-28 13:16 52.01932 0.43470 9326 ft 279 kts 271°
2026-04-28 13:16 52.02003 0.40318 9326 ft 280 kts 271°
2026-04-28 13:16 52.02075 0.37162 9326 ft 280 kts 271°
2026-04-28 13:16 52.02144 0.34007 9326 ft 280 kts 271°
2026-04-28 13:17 52.02212 0.30850 9329 ft 280 kts 271°
2026-04-28 13:17 52.02279 0.27688 9327 ft 280 kts 271°
2026-04-28 13:17 52.02349 0.24575 9327 ft 280 kts 271°
2026-04-28 13:17 52.02422 0.21377 9327 ft 280 kts 271°
2026-04-28 13:18 52.02492 0.18251 9327 ft 280 kts 271°
2026-04-28 13:18 52.02559 0.15089 9269 ft 279 kts 271°
2026-04-28 13:18 52.02626 0.11944 8928 ft 278 kts 271°
2026-04-28 13:18 52.02689 0.08805 8580 ft 277 kts 271°
2026-04-28 13:19 52.02744 0.05677 8246 ft 276 kts 271°
2026-04-28 13:19 52.02793 0.02560 7897 ft 275 kts 271°
2026-04-28 13:19 52.02836 -0.00548 7558 ft 274 kts 271°
2026-04-28 13:19 52.02871 -0.03637 7335 ft 273 kts 271°
2026-04-28 13:20 52.02900 -0.06741 7327 ft 276 kts 271°
2026-04-28 13:20 52.02915 -0.09874 7227 ft 278 kts 267°
2026-04-28 13:20 52.02724 -0.12975 7041 ft 275 kts 262°
2026-04-28 13:20 52.02468 -0.15999 7007 ft 274 kts 261°
2026-04-28 13:21 52.02202 -0.19072 6900 ft 274 kts 261°
2026-04-28 13:21 52.01936 -0.22135 6559 ft 274 kts 261°
2026-04-28 13:21 52.01665 -0.25195 6245 ft 273 kts 261°
2026-04-28 13:21 52.01390 -0.28234 5929 ft 271 kts 261°
2026-04-28 13:22 52.01109 -0.31241 5619 ft 269 kts 261°
2026-04-28 13:22 52.00823 -0.34239 5299 ft 267 kts 261°
2026-04-28 13:22 52.00532 -0.37207 5037 ft 265 kts 261°
2026-04-28 13:22 52.00235 -0.40164 5007 ft 265 kts 261°
2026-04-28 13:23 51.99937 -0.43118 5010 ft 265 kts 261°
2026-04-28 13:23 51.99635 -0.46076 5009 ft 265 kts 261°
2026-04-28 13:23 51.99333 -0.49030 5009 ft 266 kts 261°
2026-04-28 13:23 51.99026 -0.51995 5010 ft 266 kts 261°
2026-04-28 13:24 51.98712 -0.54919 5006 ft 266 kts 261°
2026-04-28 13:24 51.98395 -0.57867 5008 ft 266 kts 261°
2026-04-28 13:24 51.98087 -0.60827 5012 ft 265 kts 261°
2026-04-28 13:24 51.97783 -0.63764 5012 ft 264 kts 261°
2026-04-28 13:25 51.97475 -0.66706 5009 ft 265 kts 261°
2026-04-28 13:25 51.97160 -0.69645 5007 ft 265 kts 261°
2026-04-28 13:25 51.96551 -0.72452 5008 ft 265 kts 233°
2026-04-28 13:25 51.95240 -0.74422 5009 ft 254 kts 201°
2026-04-28 13:26 51.93585 -0.75142 5009 ft 243 kts 179°
2026-04-28 13:26 51.91905 -0.75367 5007 ft 241 kts 176°
2026-04-28 13:26 51.90230 -0.75532 5007 ft 242 kts 176°
2026-04-28 13:26 51.88548 -0.75694 4986 ft 241 kts 176°
2026-04-28 13:27 51.86889 -0.75840 4541 ft 236 kts 172°
2026-04-28 13:27 51.85383 -0.75165 3955 ft 219 kts 139°
2026-04-28 13:27 51.84269 -0.73568 3294 ft 219 kts 127°
2026-04-28 13:27 51.83242 -0.71740 3036 ft 219 kts 122°
2026-04-28 13:28 51.82506 -0.69615 3006 ft 211 kts 101°
2026-04-28 13:28 51.82283 -0.67320 3005 ft 200 kts 84°
2026-04-28 13:28 51.82505 -0.65245 3002 ft 185 kts 70°
2026-04-28 13:28 51.82858 -0.63245 3002 ft 185 kts 71°
2026-04-28 13:29 51.83210 -0.61245 3009 ft 185 kts 70°
2026-04-28 13:29 51.83557 -0.59265 3014 ft 183 kts 70°
2026-04-28 13:29 51.83907 -0.57269 2924 ft 183 kts 70°
2026-04-28 13:29 51.84241 -0.55356 2745 ft 173 kts 71°
2026-04-28 13:30 51.84566 -0.53502 2505 ft 171 kts 70°
2026-04-28 13:30 51.84879 -0.51704 2274 ft 160 kts 69°
2026-04-28 13:30 51.85171 -0.50026 2068 ft 149 kts 69°
2026-04-28 13:30 51.85442 -0.48470 1874 ft 141 kts 70°
2026-04-28 13:31 51.85932 -0.45655 1479 ft 117 kts 69°
2026-04-28 13:31 51.86151 -0.44406 1294 ft 113 kts 69°
2026-04-28 13:31 51.86369 -0.43170 1136 ft 114 kts 69°
2026-04-28 13:32 51.86572 -0.41942 957 ft 113 kts 69°
2026-04-28 13:32 51.86795 -0.40686 840 ft 117 kts 66°
2026-04-28 13:32 51.87015 -0.39417 686 ft 117 kts 70°
2026-04-28 13:32 51.87232 -0.38166 546 ft 113 kts 68°
2026-04-28 13:33 51.87413 -0.37139 522 ft 60 kts 73°
2026-04-28 13:33 51.87495 -0.36677 526 ft 36 kts 75°
2026-04-28 13:33 51.87556 -0.36305 521 ft 33 kts 76°
2026-04-28 13:33 51.87602 -0.36038 516 ft 17 kts 72°
2026-04-28 13:34 51.87669 -0.35926 516 ft 12 kts 340°
2026-04-28 13:34 51.87734 -0.35957 516 ft 11 kts 345°
2026-04-28 13:34 51.87780 -0.36034 517 ft 8 kts 278°
2026-04-28 13:34 51.87772 -0.36101 518 ft 6 kts 261°
2026-04-28 13:35 51.87761 -0.36200 518 ft 14 kts 256°
2026-04-28 13:35 51.87726 -0.36412 519 ft 21 kts 252°
2026-04-28 13:35 51.87687 -0.36638 521 ft 22 kts 255°
2026-04-28 13:35 51.87644 -0.36880 526 ft 21 kts 254°
2026-04-28 13:36 51.87605 -0.37113 522 ft 22 kts 255°
2026-04-28 13:36 51.87581 -0.37345 522 ft 20 kts 280°
2026-04-28 13:36 51.87655 -0.37484 522 ft 17 kts 325°
2026-04-28 13:36 51.87726 -0.37662 520 ft 20 kts 294°
2026-04-28 13:37 51.87773 -0.37828 523 ft 7 kts 295°
2026-04-28 13:37 51.87794 -0.37873 523 ft 0 kts 355°
2026-04-28 13:37 51.87813 -0.37865 523 ft 5 kts 22°
2026-04-28 13:37 51.87837 -0.37845 523 ft 1 kts 28°
2026-04-28 13:38 51.87839 -0.37843 523 ft 0 kts 28°